CST,Max TemperatureF,Mean TemperatureF,Min TemperatureF,Max Dew PointF,MeanDew PointF,Min DewpointF,Max Humidity, Mean Humidity, Min Humidity, Max Sea Level PressureIn, Mean Sea Level PressureIn, Min Sea Level PressureIn, Max VisibilityMiles, Mean VisibilityMiles, Min VisibilityMiles, Max Wind SpeedMPH, Mean Wind SpeedMPH, Max Gust SpeedMPH,PrecipitationIn, CloudCover, Events, WindDirDegrees
2011-11-1,69,50,32,41,33,24,93,61,19,30.34,30.28,30.24,10,9,6,8,1,,0.00,0,,109
2011-11-2,69,52,37,39,36,33,86,58,30,30.35,30.25,30.15,10,10,10,14,5,20,0.00,0,,127
2011-11-3,57,50,43,54,44,34,94,77,52,30.16,29.99,29.92,10,8,2,22,11,30,0.21,7,Rain,231
2011-11-4,61,50,39,46,42,38,96,83,60,30.19,30.10,30.00,10,8,2,14,9,,0.01,6,Rain,335
2011-11-5,66,50,35,45,39,32,100,83,40,30.26,30.21,30.17,10,4,0,13,4,22,0.00,1,Fog,71
2011-11-6,68,55,44,46,40,33,77,59,45,30.38,30.31,30.26,10,10,10,16,10,25,0.00,0,,135
2011-11-7,72,58,43,50,47,41,93,71,46,30.35,30.27,30.20,10,10,10,10,4,,0.00,2,,117
2011-11-8,73,62,50,51,49,46,86,62,43,30.22,30.14,30.04,10,10,5,14,6,,0.00,6,,140
2011-11-9,66,56,45,59,50,35,94,73,55,30.17,30.05,30.01,10,9,2,15,12,21,0.02,4,Rain,268
2011-11-10,55,44,32,35,26,14,79,54,21,30.23,30.19,30.14,10,10,10,18,7,26,0.00,0,,318
2011-11-11,61,44,27,31,26,19,85,54,25,30.28,30.19,30.15,10,10,10,10,3,22,0.00,0,,198
2011-11-12,61,49,37,34,31,28,70,49,29,30.27,30.20,30.12,10,10,10,17,9,24,0.00,0,,170
2011-11-13,73,64,55,56,48,33,75,57,42,30.12,30.04,29.94,10,10,10,24,17,32,0.00,3,,181
2011-11-14,71,66,64,61,60,57,83,79,70,30.03,29.97,29.92,10,10,10,16,14,,0.00,8,,189
2011-11-15,73,68,64,65,64,61,90,82,71,29.95,29.88,29.83,10,10,10,17,10,23,0.02,7,Rain,173
2011-11-16,70,59,46,66,55,33,94,84,59,30.09,29.86,29.74,10,8,1,21,11,28,0.16,8,Rain,358
2011-11-17,51,40,28,34,24,17,72,53,29,30.39,30.28,30.10,10,10,10,17,10,23,0.01,1,Rain,359
2011-11-18,57,41,25,28,24,20,85,53,29,30.43,30.34,30.26,10,10,10,14,5,17,0.00,0,,132
2011-11-19,66,54,42,53,42,26,72,57,44,30.29,30.23,30.16,10,10,10,18,11,24,0.00,6,,156
2011-11-20,66,62,59,61,58,53,94,84,73,30.27,30.22,30.20,10,9,2,13,8,,0.08,7,Rain,159
2011-11-21,69,65,61,63,61,59,94,87,78,30.25,30.18,30.08,10,8,3,18,6,24,0.00,5,,166
2011-11-22,66,63,59,63,59,55,94,87,70,30.04,29.97,29.86,10,9,2,20,9,25,0.29,7,Rain,197
2011-11-23,55,50,41,51,44,39,93,75,63,30.33,30.22,30.03,10,10,7,14,10,,0.00,7,,354
2011-11-24,60,48,35,43,38,34,97,86,47,30.41,30.36,30.32,10,5,0,8,2,,0.00,2,Fog,54
2011-11-25,64,48,33,43,37,31,92,69,37,30.36,30.27,30.18,10,10,7,14,3,,0.00,0,,136
2011-11-26,72,59,46,52,49,42,83,62,44,30.20,30.10,29.94,10,10,10,25,10,32,0.00,4,,147
2011-11-27,61,52,42,59,51,41,97,92,83,29.97,29.93,29.87,10,5,2,23,13,36,1.91,8,Rain,305
2011-11-28,43,39,35,40,37,33,96,90,86,29.91,29.80,29.75,10,7,2,15,10,21,0.47,8,Rain,264
2011-11-29,39,36,33,36,33,32,100,89,79,30.10,29.88,29.78,10,9,5,17,11,26,0.08,8,Rain-Snow,247
2011-11-30,46,38,30,34,30,27,88,75,53,30.25,30.16,30.07,10,9,7,10,7,,0.00,2,,310